Flag for Hungary Weather past 2 weeks in Budapest, Hungary

Now
64 °F

Clear.


Feels Like: 64 °F
Forecast: 52 / 73 °F
Wind: 2 mph from North

Location: Ferenc Liszt International Airport

Current Time: Jul 30, 2015 at 10:55:50 PM

Latest Report: Jul 30, 2015 at 10:00 PM


Visibility: 10 mi

Pressure: 29.95 "Hg

Humidity: 68%

Dew point: 54 °F

Location of BudapestLocation

Historic Weather in Budapest — Graph

°F

Budapest temperature yesterday

Maximum temperature yesterday: 70 °F (at 2:30 AM)
Minimum temperature yesterday: 63 °F (at 11:30 PM)
Average temperature yesterday: 66 °F

Past Weeks' High & Low Weather Summary

 TemperatureHumidityPressure
High97 °F (Jul 18, 3:00 PM)100% (Jul 24, 2:30 AM)30.15 "Hg (Jul 24, 2:30 AM)
Low50 °F (Jul 27, 4:30 AM)28% (Jul 26, 4:30 PM)29.68 "Hg (Jul 25, 4:30 PM)
Average76 °F64%29.92 "Hg
* Reported Jul 15 9:00 PM — Jul 30 9:30 PM, Budapest, Weather by CustomWeather, © 2015

Note: Actual official high and low records may vary slightly from our data, if they occured in-between our weather recording intervals... More about our weather records

Advertising

Budapest weather history for previous 24 hours

 ConditionsComfort  
Time TempWeatherWind HumidityBarometerVisibility
9:30 PM
Thu, Jul 30
63 °FClear.6 mph73%29.95 "Hg10 mi
9:00 PM63 °FSunny.3 mph73%29.95 "Hg10 mi
8:30 PM66 °FSunny.7 mph64%29.95 "Hg10 mi
8:00 PM68 °FSunny.5 mph56%29.95 "Hg10 mi
7:30 PM68 °FSunny.8 mph60%29.95 "Hg10 mi
7:00 PM72 °FSunny.9 mph50%29.95 "Hg10 mi
6:30 PM72 °FSunny.8 mph50%29.95 "Hg10 mi
6:00 PM72 °FSunny.9 mph50%29.95 "Hg10 mi
5:30 PM70 °FSunny.8 mph53%29.95 "Hg10 mi
5:00 PM70 °FSunny.10 mph53%29.95 "Hg10 mi
4:30 PM70 °FSunny.10 mph57%29.95 "Hg10 mi
4:00 PM70 °FSunny.12 mph57%29.95 "Hg10 mi
3:30 PM68 °FPassing clouds.10 mph64%29.95 "HgN/A
3:00 PM68 °FPassing clouds.9 mph64%29.98 "HgN/A
2:30 PM68 °FSunny.9 mph69%29.95 "Hg10 mi
2:00 PM66 °FPartly sunny.8 mph73%29.98 "HgN/A
1:30 PM66 °FPartly sunny.9 mph73%29.98 "HgN/A
1:00 PM66 °FPartly sunny.6 mph83%29.98 "HgN/A
12:30 PM66 °FBroken clouds.9 mph83%29.98 "HgN/A
12:00 PM66 °FLight rain. Broken clouds.8 mph88%29.98 "HgN/A
11:30 AM64 °FBroken clouds.8 mph88%29.98 "HgN/A
11:00 AM64 °FLight rain. More clouds than sun.7 mph88%29.98 "HgN/A
10:30 AM64 °FLight rain. More clouds than sun.9 mph88%29.98 "HgN/A
10:00 AM64 °FLight rain. More clouds than sun.8 mph94%29.95 "HgN/A
9:30 AM64 °FLight rain. More clouds than sun.9 mph94%29.95 "HgN/A
9:00 AM63 °FLight rain. More clouds than sun.10 mph100%29.95 "HgN/A
8:30 AM64 °FLight rain. Broken clouds.7 mph94%29.95 "HgN/A
8:00 AM63 °FLight rain. Broken clouds.6 mph100%29.92 "HgN/A
7:30 AM63 °FLight rain. Broken clouds.7 mph100%29.92 "HgN/A
7:00 AM63 °FLight rain. Broken clouds.12 mph94%29.92 "HgN/A
6:30 AM63 °FSunny.2 mph100%29.92 "Hg10 mi
6:00 AM63 °FClear.3 mph94%29.92 "Hg10 mi
5:30 AM63 °FClear.2 mph94%29.89 "Hg10 mi
5:00 AM63 °FClear.1 mph94%29.89 "Hg10 mi
4:30 AM63 °FClear.5 mph100%29.89 "Hg10 mi
4:00 AM63 °FLight rain. Partly cloudy.5 mph94%29.89 "HgN/A
3:30 AM63 °FLight rain. Clear.3 mph94%29.89 "HgN/A
3:00 AM63 °FLight rain. Partly cloudy.1 mph94%29.89 "HgN/A
2:30 AM63 °FLight rain. Clear.1 mph94%29.89 "HgN/A
2:00 AM63 °FLight rain. Clear.2 mph94%29.89 "HgN/A
1:30 AM63 °FClear.2 mph94%29.86 "Hg10 mi
1:00 AM63 °FClear.6 mph94%29.89 "Hg10 mi
12:30 AM63 °FClear.7 mph94%29.89 "Hg10 mi
12:00 AM63 °FClear.6 mph94%29.86 "Hg10 mi
11:30 PM
Wed, Jul 29
63 °FLight rain. Passing clouds.6 mph94%29.89 "HgN/A
11:00 PM64 °FLight rain. Partly cloudy.2 mph88%29.86 "HgN/A
10:30 PM64 °FLight rain. Passing clouds.3 mph83%29.86 "HgN/A
10:00 PM64 °FClear.5 mph83%29.86 "Hg10 mi
Weather by CustomWeather, © 2015

See weather overviewHow to use our weather pages